OneWeb SL0118

operational
NORAD ID: 47264 Int'l Des: 2020-100 Owner: ONEWEB Country: UK Constellation: oneweb
LEOCIRCULARPOLARONEWEB_TYPE

关于 OneWeb SL0118

正在加载描述...

实时位置

正在加载3D地球...

即将过境

高度历史

Altitude vs Time

uPlot chart will show altitude changes over time

两行轨道根数

1 47264U 20100G 25351.35359024 -.00000327 00000-0 -94682-3 0 9999
2 47264 87.8938 26.7675 0001530 106.8505 253.2792 13.12293263240878
Epoch: Dec 17, 2025 • Age: 5 hours

当前状态

高度 1217.8 km
速度 7.25 km/s
星下点 -1.56°S, 90.7°E
发射日期 Dec 18, 2020
运行时间 4.9 years
类型 internet

技术详情

分类 Payload
质量 148.00 kg
干质量 140.00 kg
总质量 148.00 kg
长度 1.30 m
直径 1.00 m
跨度 5.00 m
形状 Trapezoid+2 pan
制造商 ONEWUS
平台类型 ARROW
阶段状态 In Orbit
所有者/国家 ONEWEB/UK

大型星座

Loading constellations...